Stations météo

réclame
Mon MeteoGroup
Ansbach/Katterbach, Allemagne (10755): Température de l'air & dewpoint: 16.02.2018 21:00:00 - 22.02.2018 21:00:00 (CET)Ansbach/Katterbach, Allemagne (10755): Vitesse du vent: 16.02.2018 21:00:00 - 22.02.2018 21:00:00 (CET)Ansbach/Katterbach, Allemagne (10755): Direction du vent: 16.02.2018 21:00:00 - 22.02.2018 21:00:00 (CET)Ansbach/Katterbach, Allemagne (10755): reduced air pressure: 16.02.2018 21:00:00 - 22.02.2018 21:00:00 (CET)Ansbach/Katterbach, Allemagne (10755): visibility: 16.02.2018 21:00:00 - 22.02.2018 21:00:00 (CET)
Date & Time tt [°C] td [°C] ff [km/h] ff [knt] dd ppp [hPa] vv [km]
22.02.2018 21:00:00 -2,4 -10,2 16 9 NE 1020,8 10
22.02.2018 20:00:00 -1,9 -10,0 18 10 ENE 1021,0 10
22.02.2018 19:00:00 -1,2 -10,1 22 12 ENE 1020,8 10
22.02.2018 18:00:00 -0,8 -9,7 21 11 ENE 1020,1 10
22.02.2018 17:00:00 -0,1 -9,5 26 14 ENE 1019,5 10
22.02.2018 16:00:00 0,0 -9,7 21 11 ENE 1019,8 10
22.02.2018 15:00:00 0,1 -9,1 22 12 ENE 1019,8 10
22.02.2018 14:00:00 -0,5 -9,4 29 16 ENE 1019,8 10
22.02.2018 13:00:00 -1,5 -9,4 26 14 NE 1020,8 10
22.02.2018 12:00:00 -2,2 -9,4 28 15 NE 1021,5 10
22.02.2018 11:00:00 -2,3 -9,0 24 13 ENE 1021,5 10
22.02.2018 10:00:00 -3,3 -8,4 22 12 NE 1021,5 10
22.02.2018 09:00:00 -4,5 -8,3 22 12 NE 1021,8 10
22.02.2018 08:00:00 -5,1 -8,5 16 9 NE 1022,0 10
22.02.2018 07:00:00 -5,6 -8,5 18 10 NE 1022,0 10
22.02.2018 06:00:00 -5,2 -8,4 18 10 NE 1021,8 10
22.02.2018 05:00:00 -5,0 -8,8 18 10 NE 1021,2 10
22.02.2018 04:00:00 -4,8 -8,7 18 10 NE 1021,3 10
22.02.2018 03:00:00 -4,6 -8,7 16 9 NE 1021,9 10
22.02.2018 02:00:00 -4,2 -8,5 21 11 NE 1021,9 10
22.02.2018 01:00:00 -4,1 -8,2 13 7 NE 1022,3 10
22.02.2018 00:00:00 -3,8 -7,9 13 7 NE 1022,6 10
21.02.2018 23:00:00 -3,5 -7,6 16 9 NE 1022,6 10
21.02.2018 22:00:00 -3,4 -7,2 13 7 NNE 1023,2 10
21.02.2018 21:00:00 -2,9 -7,1 18 10 NE 1023,8 10
21.02.2018 20:00:00 -2,3 -7,2 22 12 NNE 1023,4 10
21.02.2018 19:00:00 -1,1 -7,5 21 11 NE 1022,8 10
21.02.2018 18:00:00 -0,3 -6,9 16 9 N 1022,3 10
21.02.2018 17:00:00 1,5 -8,1 15 8 NNE 1021,6 10
21.02.2018 16:00:00 2,0 -7,9 11 6 NNE 1021,6 10
21.02.2018 15:00:00 1,8 -6,8 16 9 NE 1021,7 10
21.02.2018 14:00:00 0,7 -6,4 13 7 NNE 1022,6 10
21.02.2018 13:00:00 -0,3 -6,5 15 8 N 1023,3 10
21.02.2018 12:00:00 -1,0 -6,6 16 9 NE 1023,3 6
21.02.2018 11:00:00 -2,0 -6,0 13 7 NE 1022,9 6
21.02.2018 10:00:00 -3,1 -5,4 11 6 ENE 1023,2 5
21.02.2018 09:00:00 -4,4 -5,7 18 10 NNE 1022,8 4,0
21.02.2018 08:00:00 -5,2 -5,9 11 6 NNE 1023,4 2,8
21.02.2018 07:00:00 -5,0 -5,8 8 4 NNE 1023,1 1,6
21.02.2018 06:00:00 -4,8 -5,5 9 5 N 1022,8 2,0
21.02.2018 05:00:00 -5,1 -5,8 11 6 N 1022,5 6
21.02.2018 04:00:00 -5,1 -5,8 8 4 NNW 1022,1 6
21.02.2018 03:00:00 -5,0 -5,8 8 4 N 1022,1 8
21.02.2018 02:00:00 -4,1 -5,2 9 5 N 1022,1 8
21.02.2018 01:00:00 -3,6 -4,9 8 4 NNE 1021,8 9
21.02.2018 00:00:00 -3,1 -4,4 9 5 NNE 1021,5 10
20.02.2018 23:00:00 -3,0 -4,1 11 6 NNE 1021,1 4,0
20.02.2018 22:00:00 -3,2 -4,3 11 6 N 1021,1 4,0
20.02.2018 21:00:00 -2,8 -3,8 11 6 NNE 1021,0 3,2
20.02.2018 20:00:00 -2,6 -4,2 13 7 NE 1020,7 3,2
20.02.2018 19:00:00 -2,1 -4,6 11 6 NNE 1020,1 6
20.02.2018 18:00:00 -1,8 -4,8 11 6 N 1019,7 8
20.02.2018 17:00:00 -1,6 -4,6 11 6 NNE 1019,4 8
20.02.2018 16:00:00 -1,5 -4,5 13 7 N 1018,8 6
20.02.2018 15:00:00 -1,6 -4,6 9 5 N 1019,0 10
20.02.2018 14:00:00 -1,9 -4,6 8 4 N 1019,0 10
20.02.2018 13:00:00 -2,1 -4,4 8 4 NNE 1018,7 6
20.02.2018 12:00:00 -2,7 -4,0 9 5 N 1019,3 4,0
20.02.2018 11:00:00 -3,5 -3,6 9 5 N 1019,3 3,2
20.02.2018 10:00:00 -3,9 -4,0 5 3 N 1019,3 2,0
20.02.2018 09:00:00 -4,5 -4,6 8 4 N 1019,3 0,4
20.02.2018 08:00:00 -4,6 -4,9 5 3 N 1019,5 0,4
20.02.2018 07:00:00 -4,8 -5,1 8 4 NNE 1018,9 1,6
20.02.2018 06:00:00 -4,6 -5,2 0 0 N 1018,4 2,4
20.02.2018 05:00:00 -4,0 -5,1 0 0 N 1018,7 10
20.02.2018 04:00:00 -3,8 -4,9 0 0 N 1018,7 10
20.02.2018 03:00:00 -3,5 -4,6 0 0 N 1018,8 10
20.02.2018 02:00:00 -3,7 -4,7 0 0 N 1019,0 10
20.02.2018 01:00:00 -3,8 -5,1 0 0 N 1019,4 10
20.02.2018 00:00:00 -4,4 -5,4 0 0 N 1019,7 10
19.02.2018 23:00:00 -4,8 -5,8 5 3 WNW 1020,0 10
19.02.2018 22:00:00 -4,4 -5,5 0 0 N 1020,3 10
19.02.2018 21:00:00 -4,0 -5,4 5 3 W 1020,7 10
19.02.2018 20:00:00 -4,2 -5,6 8 4 WSW 1020,9 10
19.02.2018 19:00:00 -3,5 -5,4 8 4 SSW 1021,0 10
19.02.2018 18:00:00 -2,7 -4,7 8 4 SW 1021,3 10
19.02.2018 17:00:00 -2,3 -4,6 8 4 SW 1021,3 10
19.02.2018 16:00:00 -1,9 -4,6 8 4 S 1021,1 10
19.02.2018 15:00:00 -1,7 -4,7 8 4 S 1021,5 10
19.02.2018 14:00:00 -1,9 -4,9 5 3 ESE 1022,1 10
19.02.2018 13:00:00 -2,4 -5,1 9 5 SE 1022,8 10
19.02.2018 12:00:00 -2,7 -4,9 11 6 SE 1023,5 10
19.02.2018 11:00:00 -3,2 -4,8 9 5 ESE 1023,9 10
19.02.2018 10:00:00 -3,6 -4,6 11 6 ESE 1024,2 10
19.02.2018 09:00:00 -4,8 -5,1 5 3 E 1024,5 10
19.02.2018 08:00:00 -5,5 -5,9 8 4 E 1024,9 10
19.02.2018 07:00:00 -5,9 -6,3 8 4 ENE 1024,9 10
19.02.2018 06:00:00 -6,0 -6,5 0 0 N 1024,9 10
19.02.2018 05:00:00 -5,4 -5,7 8 4 E 1025,2 10
19.02.2018 04:00:00 -4,9 -5,2 9 5 E 1025,6 10
19.02.2018 03:00:00 -4,7 -4,8 9 5 E 1026,3 10
19.02.2018 02:00:00 -3,7 -3,8 8 4 ENE 1026,7 6
19.02.2018 01:00:00 -4,5 -4,8 9 5 ENE 1027,1 0,8
19.02.2018 00:00:00 -2,9 -3,0 11 6 ENE 1027,4 1,2
18.02.2018 23:00:00 -2,4 -2,5 9 5 ENE 1027,7 10
18.02.2018 22:00:00 -2,1 -2,2 0 0 N 1028,1 4,0
18.02.2018 21:00:00 -1,8 -1,9 5 3 ESE 1029,0 10
18.02.2018 20:00:00 -1,5 -1,6 8 4 E 1029,4 10
18.02.2018 19:00:00 -0,5 -1,8 5 3 E 1029,7 10
18.02.2018 18:00:00 0,0 -2,1 11 6 E 1029,5 10
18.02.2018 17:00:00 -0,1 -2,0 5 3 ESE 1029,8 10
18.02.2018 16:00:00 -0,3 -2,7 9 5 SE 1029,5 10
18.02.2018 15:00:00 -0,3 -2,4 9 5 ESE 1029,9 10
18.02.2018 14:00:00 -0,5 -2,7 9 5 ESE 1029,9 10
18.02.2018 13:00:00 -0,8 -2,4 5 3 S 1030,3 10
18.02.2018 12:00:00 -1,1 -2,7 9 5 ESE 1030,3 10
18.02.2018 11:00:00 -1,6 -2,3 9 5 NE 1030,6 10
18.02.2018 10:00:00 -2,1 -2,2 9 5 NE 1030,3 10
18.02.2018 09:00:00 -3,2 -3,3 8 4 NNE 1030,2 6
18.02.2018 08:00:00 -4,1 -4,2 8 4 NNE 1030,2 3,6
18.02.2018 07:00:00 -3,9 -4,0 8 4 NNE 1029,8 6
18.02.2018 06:00:00 -3,6 -3,7 9 5 N 1029,1 6
18.02.2018 05:00:00 -3,3 -3,4 9 5 N 1028,8 6
18.02.2018 04:00:00 -2,9 -3,0 8 4 N 1028,8 6
18.02.2018 03:00:00 -2,6 -2,7 9 5 N 1028,8 6
18.02.2018 02:00:00 -1,9 -2,0 8 4 N 1027,9 9
18.02.2018 01:00:00 -1,5 -1,6 9 5 N 1027,5 10
18.02.2018 00:00:00 -1,2 -1,3 9 5 N 1026,8 10
17.02.2018 23:00:00 -0,9 -1,0 11 6 N 1026,5 10
17.02.2018 22:00:00 -0,8 -0,9 11 6 N 1025,8 10
17.02.2018 21:00:00 -0,6 -0,7 9 5 NNE 1024,8 10
17.02.2018 20:00:00 -0,7 -0,8 9 5 N 1024,4 10
17.02.2018 19:00:00 -0,8 -0,9 9 5 N 1023,7 9
17.02.2018 18:00:00 -0,9 -1,0 11 6 N 1023,0 8
17.02.2018 17:00:00 -1,0 -1,1 11 6 N 1023,0 2,2
17.02.2018 16:00:00 -1,1 -1,2 11 6 NNE 1022,4 1,6
17.02.2018 15:00:00 -1,0 -1,1 11 6 NNE 1022,0 1,6
17.02.2018 14:00:00 -1,0 -1,1 13 7 NNE 1022,0 0,8
17.02.2018 13:00:00 -0,8 -0,9 9 5 NE 1022,0 1,0
17.02.2018 12:00:00 -0,8 -0,9 11 6 ENE 1022,4 10
17.02.2018 11:00:00 -1,3 -1,4 11 6 ENE 1022,7 9
17.02.2018 10:00:00 -1,7 -1,8 9 5 ENE 1023,7 9
17.02.2018 09:00:00 -1,8 -1,9 13 7 ENE 1023,4 9
17.02.2018 08:00:00 -1,6 -1,7 16 9 NE 1024,4 4,4
17.02.2018 07:00:00 -1,3 -1,4 15 8 ENE 1025,2 5
17.02.2018 06:00:00 -1,0 -1,1 13 7 ENE 1025,6 1,2
17.02.2018 05:00:00 -0,9 -1,0 15 8 ENE 1026,0 0,8
17.02.2018 04:00:00 -0,6 -0,7 11 6 E 1025,9 0,8
17.02.2018 03:00:00 -0,8 -0,9 8 4 E 1027,6 0,6
17.02.2018 02:00:00 -1,0 -1,0 8 4 ESE 1028,3 0,6
17.02.2018 01:00:00 -1,3 -1,4 8 4 E 1028,9 0,4
17.02.2018 00:00:00 -0,7 -0,8 5 3 E 1029,6 0,4
16.02.2018 23:00:00 -0,2 -0,3 8 4 E 1029,2 0,4
16.02.2018 22:00:00 0,2 0,1 5 3 E 1029,2 0,6
16.02.2018 21:00:00 0,5 0,4 8 4 ENE 1029,6 0,4

tt = Température de l'air
td = dewpoint
ff = Vitesse du vent
dd = Direction du vent
ppp = reduced air pressure
vv = visibility

stations d'obs. à proximité